Location: Selman City
(32.1902°N, 94.9619°W)
Time: 00:31:21
(UTC+00:00)

Daily predictions for brighter satellites

Satellite Brightness Start Highest point End
(mag) Time Altitude Azimuth Time Altitude Azimuth Time Altitude Azimuth
CZ-2C R/B 3.8 00:39:52 10° SE 00:44:22 32° ENE 00:49:05 10° N
Cosmos 1844 Rocket 4.1 00:42:41 10° SE 00:45:33 14° E 00:48:26 10° ENE
SWARM C 4.4 00:42:17 10° N 00:45:37 78° E 00:48:56 10° S
SWARM A 4.2 00:42:24 10° N 00:45:44 88° E 00:49:03 10° S
Cosmos 1378 3.4 00:44:57 10° N 00:48:38 73° W 00:52:19 10° S
SEDSat Delta rocket 3.9 00:43:44 10° W 00:49:06 52° SSW 00:53:45 10° ESE
Cosmos 923 Rocket 4.0 00:44:55 10° N 00:50:08 69° ENE 00:55:17 10° SSE
YAOGAN 1 2.8 00:48:54 10° SSE 00:53:04 50° ENE 00:57:15 10° N
USA 116 3.6 00:50:37 10° NNE 00:54:13 65° ESE 00:58:14 10° S
Cosmos 1271 Rocket 4.5 00:52:38 10° NNW 00:56:22 38° W 01:00:03 10° SSW
GP-B 3.4 00:54:06 10° N 00:58:32 75° W 01:02:56 10° S
Cosmos 1943 3.9 00:56:01 10° N 01:01:08 34° ENE 01:06:13 10° SE
Okean 2 3.5 00:58:41 10° N 01:02:45 51° E 01:06:47 10° SSE
Tsikada Rocket 4.1 01:00:20 10° N 01:06:29 80° W 01:12:38 10° S
CSL-04 Debris 4.3 01:01:24 10° SSE 01:06:37 52° ENE 01:11:50 10° N
Cosmos 1898 Rocket 4.5 01:03:22 10° SSW 01:08:22 51° WNW 01:13:25 10° N
Cosmos 1975 3.3 01:04:39 10° SSW 01:08:41 67° W 01:12:46 10° N
CZ-4 R/B 1.7 01:06:30 10° S 01:10:42 77° W 01:14:55 10° NNW
Cosmos 1782 Rocket 3.7 01:08:52 10° S 01:13:14 80° W 01:17:40 10° N
Meteor 1-21 4.3 01:09:10 10° N 01:14:39 56° E 01:20:07 10° SSE
CSL-04 Rocket 3.7 01:10:40 10° SSE 01:15:56 61° ENE 01:21:19 10° N
CZ-2C R/B 1.2 01:16:27 10° W 01:20:00 58° N 01:22:04 21° ENE
Cosmos 1603 3.7 01:15:22 10° NNW 01:20:57 62° ENE 01:26:29 10° SSE
Cosmos 1025 Rocket 4.3 01:20:23 10° NNE 01:23:42 21° ENE 01:23:50 21° E
Cosmos 372 Rocket 3.9 01:20:55 10° S 01:26:07 72° ESE 01:31:21 10° NNE
NOSS 2-2 (C) 4.4 01:23:24 10° SW 01:26:47 40° WNW 01:30:11 10° NNE
Cosmos 1891 Rocket 4.4 01:21:36 10° S 01:27:41 62° E 01:33:40 10° NNE
Cosmos 2150 Rocket 4.3 01:25:40 10° S 01:30:43 46° ESE 01:35:52 10° NNE
Cosmos 1842 3.6 01:28:13 10° NNW 01:32:03 67° W 01:35:53 10° S
Cosmos 1125 Rocket 4.0 01:36:07 10° SSE 01:40:54 36° E 01:45:43 10° NE
Delta 128 4.1 01:37:56 10° W 01:42:35 46° S 01:44:09 32° SE
SJ-6B 4.3 01:44:19 20° NE 01:44:19 20° NE 01:46:01 10° NNE
Cosmos 1975 Rocket 3.2 01:40:18 10° N 01:44:36 73° W 01:48:54 10° S
MOS 1 Rocket 3.7 01:40:51 10° N 01:45:09 58° WNW 01:49:20 10° SSW
Cosmos 2084 Rocket 3.5 01:40:47 10° NNW 01:45:16 66° ENE 01:46:48 39° SE
Cosmos 1707 2.7 01:42:18 10° N 01:46:05 54° E 01:46:33 50° ESE
ISS -1.0 01:47:51 10° W 01:50:12 17° NW 01:52:33 10° N
USA 234 3.2 01:47:51 10° NE 01:54:25 89° NW 02:00:58 10° SW
Cosmos 2034 Rocket 3.9 01:50:44 10° S 01:57:03 72° E 02:03:23 10° N
H-2A R/B 2.5 01:54:03 10° S 01:58:52 58° W 02:03:47 10° NNW
Nadezhda 4 Rocket 4.1 01:55:55 10° N 02:01:50 50° E 02:03:08 43° ESE
ARGOS 3.2 01:58:12 10° S 02:03:29 75° WSW 02:08:52 10° NNW
SL-08 RB Rocket 3.6 02:05:17 47° SSE 02:06:37 87° ENE 02:11:13 10° N
In-Cosmos 22 3.9 02:01:27 10° N 02:06:44 68° E 02:07:58 51° SE
USA 102 4.3 02:07:51 63° WNW 02:07:51 63° WNW 02:13:56 10° NNW
Okean 2 Rocket 4.2 02:08:05 10° SSW 02:12:23 45° W 02:16:43 10° N
CZ-2C R/B 2.9 02:09:06 10° N 02:14:39 74° WNW 02:20:15 10° SSW
MOS 1 4.2 02:14:02 56° SE 02:15:06 70° ENE 02:20:47 10° N
Cosmos 1844 3.6 02:12:02 10° SSW 02:17:45 88° ESE 02:23:27 10° NNE
USA 186 4.4 02:26:23 17° NW 02:26:23 17° NW 02:27:21 10° NNW
DELTA 2 R/B (1) 3.4 02:22:04 10° WNW 02:27:38 86° NNE 02:27:38 86° NNE
ATLAS 2AS CENTAUR R/B 3.0 02:20:04 10° S 02:27:39 57° ESE 02:35:24 10° NE
Cosmos 1844 Rocket 3.2 02:23:24 10° SW 02:28:51 56° WNW 02:34:20 10° N
Ariane Rocket 3.2 02:30:49 60° SW 02:31:27 66° WSW 02:36:30 10° NNW
Cosmos 2285 Rocket 4.0 02:29:39 10° SSW 02:35:56 81° WNW 02:42:17 10° NNE
ATLAS 5 CENTAUR R/B 4.3 02:35:25 10° NW 02:40:13 53° SW 02:58:38 10° SSE
CENTAUR R/B 3.8 02:39:51 10° NNW 02:47:17 40° NE 02:47:17 40° NE
USA 238 DEB 4.1 02:49:06 10° NNW 02:55:26 57° NNE 02:55:26 57° NNE
USA 238 4.1 02:49:13 10° NNW 02:55:30 56° NNE 02:55:30 56° NNE
CZ-2C R/B 4.4 02:56:25 10° WNW 02:56:25 10° WNW 02:56:25 10° WNW
Cosmos 1092 Rocket 4.5 02:54:23 10° N 02:58:55 52° N 02:58:55 52° N
Milstar 3 Cent rocket 3.9 03:03:46 10° WSW 03:06:06 23° WSW 03:06:06 23° WSW
NOSS 3-2 (A) 4.3 03:16:43 10° NNW 03:23:35 70° NW 03:23:35 70° NW
ATLAS 2AS CENTAUR R/B 4.5 04:12:10 10° WSW 04:20:13 30° NNW 04:25:52 10° N
BREEZE-M DEB (TANK) 4.3 09:13:56 76° SSE 09:14:10 77° SE 09:19:16 10° ENE
Cosmos 1980 Rocket 3.3 09:22:32 38° NNE 09:22:32 38° NNE 09:25:57 10° NNE
SL-16 R/B 4.0 09:31:25 19° SE 09:33:56 26° ESE 09:38:33 10° NE
Chandra Rocket (1) 4.4 09:31:37 48° W 09:36:56 71° SSW 09:43:46 10° ESE
NOSS 3-3 (A) 3.8 09:45:00 75° NE 09:45:00 75° NE 09:50:37 10° NNE
NOSS 3-3 (C) 3.8 09:45:10 74° NE 09:45:10 74° NE 09:50:41 10° NNE
Lacrosse 5 4.0 09:48:47 17° NNW 09:48:47 17° NNW 09:50:40 10° N
Cosmos 1238 Rocket 4.2 09:45:16 10° N 09:51:47 68° E 09:57:35 10° SSE
BREEZE-M DEB (TANK) 4.2 09:50:54 53° WNW 09:52:19 62° NNW 10:12:48 10° ENE
Cosmos 921 Rocket 4.2 09:55:09 37° NNE 09:55:09 37° NNE 09:57:48 10° NNE
Cosmos 2228 Rocket 3.9 10:01:20 42° N 10:01:20 42° N 10:04:16 10° N
Meteor 1-4 Rocket 3.7 10:09:30 40° ENE 10:09:30 40° ENE 10:12:17 10° NNE
Skynet4D Del rocket 3.9 10:09:50 49° S 10:10:12 50° S 10:16:01 10° ESE
Cosmos 1934 Rocket 3.8 10:06:01 10° N 10:12:03 70° W 10:17:22 14° S
DELTA 4 R/B 4.2 10:09:17 32° W 10:17:38 60° SSW 10:23:13 10° ESE
ADEOS Rocket 4.2 10:12:05 10° SE 10:18:50 48° ENE 10:24:58 10° N
IDEFIX/ARIANE 42P 4.0 10:15:04 10° NNW 10:17:40 23° NW 10:17:40 23° NW
USA 234 3.5 10:15:24 10° SE 10:21:51 67° NE 10:28:19 10° NW
MSX 4.2 10:19:20 10° N 10:24:40 40° WNW 10:24:50 40° WNW
Cosmos 1869 Rocket 4.0 10:20:30 10° N 10:24:48 61° E 10:29:03 10° SSE
ALOS 4.0 10:21:29 10° NNE 10:25:41 33° E 10:29:51 10° SSE
Timation 1 Rocket 4.2 10:20:26 10° NNW 10:26:26 82° WSW 10:32:25 10° SSE
ERS-2 2.8 10:25:07 10° SSE 10:28:41 55° ENE 10:32:16 10° N
FALCON 9 DEB 3.1 10:31:12 76° NNE 10:31:12 76° NNE 10:34:25 10° NE
Meteor 1-27 Rocket 4.1 10:26:59 10° S 10:32:51 70° E 10:38:44 10° NNE
IRIDIUM 106 4.2 10:29:12 10° N 10:34:27 90° W 10:39:39 10° S
Cosmos 1605 Rocket 3.9 10:29:08 10° N 10:35:30 73° W 10:41:51 10° S
H-2A R/B 2.0 10:33:16 10° S 10:37:28 57° W 10:41:48 10° NNW
SJ 16-02 1.9 10:35:12 10° N 10:39:33 60° ENE 10:43:53 10° SSE
PSLV R/B 3.8 10:37:42 10° N 10:41:41 44° WNW 10:42:13 41° W
Cosmos 1763 Rocket 3.4 10:38:57 21° SSW 10:42:33 72° WNW 10:47:52 10° NNE
Cosmos 1812 3.7 10:47:58 28° WNW 10:47:58 28° WNW 10:50:40 10° NNW
Cosmos 2360 Rocket 2.8 10:48:42 10° S 10:54:14 59° ESE 10:59:48 10° NNE
ERBS 4.3 10:54:41 16° NW 10:54:41 16° NW 10:56:38 10° N
SJ-6F 4.3 10:52:10 10° N 10:56:13 63° WNW 11:00:14 10° SSW
CZ-4B R/B 1.6 10:54:07 10° SSE 10:57:10 65° ENE 11:00:18 10° N
SL-4 R/B 2.6 10:55:28 28° WSW 10:57:35 51° NW 11:02:13 10° NE
CZ-2C R/B 3.1 10:54:13 10° N 10:58:54 37° WNW 11:02:27 16° SW
Cosmos 1500 3.8 10:56:09 10° NNW 10:59:35 32° W 11:02:59 10° SSW
Cosmos 1727 Rocket 4.2 10:55:14 10° SSW 11:01:20 50° W 11:07:28 10° N
Landsat 5 4.5 10:59:11 10° SSW 11:03:01 27° W 11:06:53 10° NW
Cosmos 1980 Rocket 4.1 11:04:19 11° WNW 11:04:53 12° NW 11:06:49 10° NW
Cosmos 1666 2.5 11:01:45 10° N 11:05:33 73° W 11:09:16 10° S
DEBRIS 4.5 11:04:43 10° NNW 11:07:35 43° NE 11:15:24 10° ESE
Cosmos 2322 Rocket 2.4 11:04:27 11° SW 11:09:48 50° WNW 11:15:20 10° N
Cosmos 2100 Rocket 4.2 11:04:00 10° N 11:10:25 82° E 11:16:46 10° S
METEOR-M 4.2 11:05:37 10° NNE 11:10:59 88° ESE 11:16:20 10° SSW
Cosmos 990 Rocket 4.0 11:06:34 10° NNW 11:11:47 90° WSW 11:17:00 10° SSE
Cosmos 44 Rocket 3.1 11:07:37 10° SSW 11:12:17 84° WNW 11:17:05 10° NNE
Cosmos 540 Rocket 3.4 11:09:53 10° SSW 11:15:01 72° WNW 11:20:11 10° NNE
FENGYUN 3A 3.6 11:09:57 10° N 11:15:19 69° WNW 11:20:41 10° SSW
Cosmos 2237 4.2 11:09:45 10° SSW 11:15:27 80° WNW 11:21:11 10° NNE
SL-16 R/B 2.9 11:13:21 13° SW 11:17:49 33° WNW 11:22:55 10° N
Cosmos 2263 Rocket 2.2 11:14:24 10° NNW 11:19:57 58° WSW 11:25:30 10° S
SAR-Lupe-4 3.5 11:20:55 10° S 11:24:26 59° W 11:27:59 10° NNW
Cosmos 2123 Rocket 4.2 11:19:48 10° S 11:26:00 82° E 11:32:18 10° N
Cosmos 2242 Rocket 4.3 11:23:12 10° S 11:27:31 58° E 11:31:50 10° NNE
BREEZE-M DEB (TANK) 4.3 11:24:09 10° SSW 11:27:43 66° SE 11:39:47 10° NE
deb Chang Zheng 4 4.4 11:24:08 10° NNW 11:27:50 29° WNW 11:31:30 10° SW
CZ-4B R/B 2.5 11:24:38 10° N 11:28:17 86° WNW 11:31:51 10° SSW
CZ-4B R/B 4.3 11:24:30 10° N 11:28:42 48° WNW 11:32:59 10° SSW
Cosmos 1459 Rocket 3.9 11:25:10 10° N 11:31:13 72° W 11:37:12 10° S
Okean 1 3.4 11:31:31 10° S 11:35:33 89° E 11:39:36 10° N
SAR-Lupe-1 4.4 11:33:22 10° S 11:36:44 40° W 11:40:07 10° NNW
ARGOS Delta rocket 4.5 11:34:14 10° NNE 11:38:42 60° E 11:43:22 10° S
Cosmos 1743 3.1 11:35:05 10° N 11:38:52 68° E 11:42:38 10° SSE
Intercosmos 25 3.7 11:33:31 10° SSW 11:38:54 58° W 11:42:32 10° N
PSLV R/B 4.1 11:35:07 10° SSE 11:39:09 80° ENE 11:43:13 10° N
Cosmos 1689 Rocket 1.9 11:37:10 10° S 11:40:05 70° W 11:43:01 10° NNW
GEOS 3 Rocket 4.2 11:34:58 10° NE 11:40:20 63° ESE 11:45:34 10° SSW
Cosmos 1898 Rocket 3.7 11:36:07 10° NNW 11:41:12 50° WSW 11:46:16 10° S
Cosmos 2208 Rocket 4.3 11:38:00 10° SW 11:43:04 47° WNW 11:48:07 10° N
COSMOS 2428 4.1 11:38:40 10° S 11:44:02 45° ESE 11:49:28 10° NE
Cosmos 2219 Rocket 3.1 11:40:24 10° S 11:45:53 55° ESE 11:51:25 10° NNE
Meteor 1-18 Rocket 4.3 11:40:23 10° S 11:45:56 86° E 11:51:30 10° N
